Overview Statistics Trail Chart Weather Telemetry Raw packets
 

This is the latest recevied weather packets stored in our database for station/object DG1ROH. If no packets are shown the sender has not sent any weather packets the latest 10 day(s).

<< 205 206 207 208 209 210 211 >>
Time Temp. Humidity Pressure Rain* Wind** Luminosity Snow
1777128092 16.67° C 50% 1010.9 hPa 0 mm - 448 W/m² -
1777127971 17.22° C 50% 1010.9 hPa 0 mm - 441 W/m² -
1777127850 17.22° C 51% 1010.9 hPa 0 mm - 445 W/m² -
1777127730 16.67° C 50% 1011 hPa 0 mm - 448 W/m² -
1777127609 16.67° C 51% 1010.9 hPa 0 mm - 450 W/m² -
1777127494 17.22° C 51% 1010.9 hPa 0 mm - 452 W/m² -
1777127370 17.22° C 53% 1011.1 hPa 0 mm - 457 W/m² -
1777127249 16.67° C 54% 1011.1 hPa 0 mm - 469 W/m² -
1777127129 17.22° C 53% 1011.1 hPa 0 mm - 404 W/m² -
1777127008 17.22° C 53% 1011.1 hPa 0 mm - 404 W/m² -
1777126891 17.22° C 53% 1011 hPa 0 mm - 490 W/m² -
1777126769 17.22° C 52% 1011.3 hPa 0 mm - 492 W/m² -
1777126649 17.22° C 53% 1011.2 hPa 0 mm - 490 W/m² -
1777126528 17.22° C 53% 1011.4 hPa 0 mm - 522 W/m² -
1777126410 17.22° C 55% 1011.3 hPa 0 mm - 506 W/m² -
1777126287 17.22° C 54% 1011.2 hPa 0 mm - 519 W/m² -
1777126167 17.22° C 53% 1011.3 hPa 0 mm - 515 W/m² -
1777126047 17.22° C 55% 1011.3 hPa 0 mm - 506 W/m² -
1777125928 16.67° C 53% 1011.2 hPa 0 mm - 517 W/m² -
1777125807 17.22° C 55% 1011.4 hPa 0 mm - 515 W/m² -
1777125689 16.67° C 54% 1011.4 hPa 0 mm - 531 W/m² -
1777125565 16.67° C 55% 1011.4 hPa 0 mm - 531 W/m² -
1777125446 16.67° C 55% 1011.4 hPa 0 mm - 531 W/m² -
1777125326 16.67° C 54% 1011.4 hPa 0 mm - 531 W/m² -
1777125206 16.67° C 55% 1011.4 hPa 0 mm - 534 W/m² -

* Rain latest hour (hover to see other rain measurements)
** Current wind speed in m/s (hover to see current wind gust speed)